THOR AGENA B R/B, 426

Orbit data source: Space-Track

THOR AGENA B R/B, 426 is space debris in LEO originally from a launch on Sat, 29 Sep 1962 UTC via a THOR AGENA B launch vehicle from the Air Force Western Test Range (AFWTR). Debris objects in space refer to the collection of defunct objects orbiting the Earth. Examples of debris include non-operational satellites, rocket bodies, and fragments generated from explosions, collisions, or faulty payload assembly.

Loading next visibility...
Identifier
426, 1962-049B
Orbit
LEO
Country
Flag of USUS
Related business
Manufacturer
GSFC
Mission
Spacecraft
Bus & Motor
TAVE, Unknown motor
Mass
900 kg wet, 91 kg dry
Launch date (UTC)
1962-09-29 (64 years ago)
Launch vehicle
THOR AGENA B
Launch site
Air Force Western Test Range (AFWTR)
Object type
Payload
Rocket body
Debris
Shape & HBR
CYL, 0.5 m
Radar Cross Section
Large (>1 m²)

Expand to show TLE details & history
Last TLE update: 9 hours ago

TLE from 9 hours ago
0 THOR AGENA B R/B
1 00426U 62049B   26207.31720848  .00000066  00000-0  65986-4 0  9993
2 00426  80.4678 229.4350 0018731 126.1456 244.5535 13.68764031185480
Epoch: 2026-07-26T07:36Z
TLE epoch observation values (Epoch: 2026-07-26T07:36:46.812Z)
Latitude
10.30787°
Longitude
172.96411°
Altitude
1,012.047 km
Speed
7.344 km/s
True Right ascension
15h 24m 42s
True Declination
10° 14' 58"
Sunlit
Object was in daylight at epoch
Visualization orbit readout
Latitude
Unknown
Longitude
Unknown
Altitude
Unknown
Speed
Unknown
Apparent Right ascension
Unknown
Apparent Declination
Unknown
Sunlit
N/A
Visualization observer readout
Local Sidereal Time
05:34:56
Azimuth
Unknown
Elevation
Unknown
Doppler factor
Unknown
Orbital elements
Apogee altitude
1,015.102 km
Perigee altitude
987.457 km
Semi-major axis
7,379.416 km
Eccentricity
0.00187
Inclination
80.4678°
RAAN
229.435°
Arg. of periapsis
126.1456°
True anomaly
244.35988°
Mean anomaly
244.5535°
Eccentric anomaly
244.45667°
Mean motion
3.42381 °/min
Orbital period
105.15 mins
BSTAR
0.000065986
Loading maneuver chart data...
Computing Atmospheric mass density...
Loading historical data...
Loading historical data...
Loading historical data...
Loading historical data...
Loading historical data...
Loading historical data...
Loading historical data...
Other satellites on launch #49 in the year 1962 (1962-09-29 UTC)

Documentation

Showing up to 5 results
|